Regional Weather Roundup
Issued by NWS Bismarck, ND

Home | Current Version | Previous Version | Text Only | Print | Product List | Glossary On
Versions: 1 2 3 4 5 6 7 8 9 10 11 12 13 14 15 16 17 18 19 20 21 22 23 24 25 26 27 28 29 30 31 32 33 34 35 36 37 38 39 40 41 42 43 44 45 46 47 48 49 50
995
ASUS43 KBIS 042202
RWRBIS

NWR BROADCAST TEXT
NATIONAL WEATHER SERVICE BISMARCK ND
400 PM CST SUN DEC 04 2016

NOTE: "FAIR" INDICATES FEW OR NO CLOUDS BELOW 12,000 FEET WITH NO
SIGNIFICANT WEATHER AND/OR OBSTRUCTIONS TO VISIBILITY.


CITY           SKY/WX    TMP DP  RH WIND       PRES   REMARKS
WILLISTON      CLEAR     32  22  66 S6        29.62S
MINOT          CLEAR     29  20  69 SW8       29.63F
MINOT AFB      CLEAR     21  17  84 SW2       29.62F
BISMARCK       CLEAR     31  22  69 W6        29.69F
DICKINSON      CLEAR     29  21  72 SW5       29.62F
GARRISON         N/A     25  19  78 W3        29.64F
HETTINGER ARPT CLEAR     35  24  64 CALM      29.67F
JAMESTOWN      PTCLDY    34  28  79 W15       29.66S
CARRINGTON     CLOUDY    30  27  86 NW18      29.67S WCI  18
HAZEN          FAIR      27  19  74 SW3       29.68F
STANLEY        FAIR      25  23  93 W6        29.63S WCI  18
TIOGA          FAIR      25  23  93 SW9       29.62F WCI  15
WATFORD CITY   FAIR      30  21  69 SE3       29.63S
$$

CITY           SKY/WX    TMP DP  RH WIND       PRES   REMARKS
GRAND FORKS    MOCLDY    32  28  85 W7        29.64S
GRAND FORKS AF CLOUDY    32  27  83 NW10      29.64S
DEVILS LAKE    CLOUDY    26  24  92 W15       29.65R WCI  14
FARGO          CLOUDY    34  28  79 W14       29.68S
GRAFTON        CLOUDY    32  32 100 W7        29.64R
GWINNER        MOCLDY    36  32  87 W9        29.71S
LANGDON          N/A     28  27  93 W17G24    29.59S WCI  16
$$

CITY           SKY/WX    TMP DP  RH WIND       PRES   REMARKS
ABERDEEN       CLEAR     38  29  70 W10       29.75S
MOBRIDGE       CLEAR     36  25  64 S6        29.70F
BUFFALO          N/A     39  25  57 SW9       29.59F
RAPID CITY     CLEAR     43  12  28 SE3       29.69F
GLASGOW        CLOUDY    38  28  67 W18G26    29.54F
SIDNEY         PTCLDY    35  26  69 SE7       29.61F
WOLF POINT     PTCLDY    42  29  59 E3        29.57F
GLENDIVE       CLEAR     37  26  64 S8        29.61F
MILES CITY     PTCLDY    43  20  39 W9        29.59F
BAKER          CLOUDY    34  21  59 SW9       29.63F
$$

CITY           SKY/WX    TMP DP  RH WIND       PRES   REMARKS
BILLINGS       CLOUDY    43  17  35 SW13      29.56F
GREAT FALLS    CLOUDY    40  25  55 SW15      29.48S
$$





USA.gov is the U.S. government's official web portal to all federal, state and local government web resources and services.